Content
SEND FEEDBACK

Daily
Averages
Monthly
Summary
French Polynesia

PAPEETE, FRENCH POLYNESIA


Home > Oceania > French Polynesia
Elevation: 2 meters     Latitude: 17 33S     Longitude: 149 36W

WEATHER
 
SELECT A DAY
Number of Records: 208,899;   Date Range: 6/30/96 - 9/22/14
 
SHARE

PRINT THIS DATA

[ ← Previous Day ]
WEATHER ALMANAC - 28 SEPTEMBER, 2013
[ Next Day → ]
[ °F ]   °C
Weather ElementAverageHighLow
Temperature25.4 °C29 °C (12:00 pm)21 °C (5:00 am)
Dewpoint19.7 °C21.1 °C (5:00 pm)17.8 °C (5:00 am)
Humidity70.1 %83 % (5:00 am)50 % (2:00 pm)
Barometer1014.9 hPa1017.3 hPa (9:30 pm)1012.2 hPa (1:00 am)
Wind Speed6.4 km/h21.6 km/h (8:00 am)
Weather ElementAverage
Visibility12.2 km
Wind DirectionSSE (146.9 °)

Weather ElementTotal
Precipitation---
Cooling Degree Days6.7 (Base 18.3)
Growing Degree Days15 (Base 10)
Averaged from 54 records on 28 September, 2013
WEATHER CONDITIONS BREAKOUT
WIND DIRECTION BREAKOUT
WEATHER BY HOUR - 28 SEPTEMBER, 2013
[ °F ]   °C
Local TimeTemperatureDewpointHumidityBarometerVisibilityWind DirectionWind SpeedGust SpeedPrecipitationEventsConditions
12:30 AM23 °C18 °C73 %1013.2 hPa10 kmESE (110°)5.6 km/hPartly Cloudy
1:00 AM23 °C18 °C73 %1012.2 hPa10 kmEast (100°)5.6 km/hPartly Cloudy
1:30 AM23 °C18 °C73 %1012.2 hPa10 kmESE (110°)3.7 km/hPartly Cloudy
2:00 AM22.2 °C18.3 °C72 %1012.5 hPa19.3 kmSouth (170°)1.9 km/hScattered Clouds
2:00 AM23 °C18 °C73 %1012.2 hPa10 kmSouth (170°)1.9 km/hPartly Cloudy
2:30 AM22 °C18 °C78 %1012.2 hPa10 kmSSE (160°)5.6 km/hPartly Cloudy
3:00 AM22 °C18 °C78 %1012.2 hPa10 kmSouth (180°)3.7 km/hPartly Cloudy
3:30 AM22 °C18 °C78 %1012.2 hPa10 kmCalmMostly Cloudy
4:00 AM22 °C18 °C78 %1012.2 hPa10 kmCalmPartly Cloudy
4:30 AM22 °C18 °C78 %1012.2 hPa10 kmSouth (190°)5.6 km/h
5:00 AM21.7 °C17.8 °C73 %1013.5 hPa59.5 kmSSE (150°)1.9 km/hClear
5:00 AM21 °C18 °C83 %1013.2 hPa10 kmSSE (150°)1.9 km/h
5:30 AM21 °C18 °C83 %1013.2 hPa10 kmSE (140°)3.7 km/h
6:00 AM22 °C18 °C78 %1014.2 hPa10 kmCalmPartly Cloudy
6:30 AM23 °C19 °C78 %1014.2 hPa10 kmEast (100°)5.6 km/hPartly Cloudy
7:00 AM25 °C19 °C69 %1015.2 hPa10 kmCalmPartly Cloudy
7:30 AM26 °C19 °C65 %1015.2 hPa10 kmSW (220°)5.6 km/hPartly Cloudy
8:00 AM26.7 °C18.3 °C52 %1016.3 hPa19.3 kmSSW (210°)21.6 km/hPartly Cloudy
8:00 AM26 °C19 °C65 %1016.3 hPa10 kmSSW (210°)11.1 km/hScattered Clouds
8:30 AM27 °C18 °C58 %1016.3 hPa10 kmSW (220°)11.1 km/hScattered Clouds
9:00 AM27 °C19 °C61 %1016.3 hPa10 kmSW (220°)13 km/hMostly Cloudy
9:30 AM27 °C20 °C65 %1016.3 hPa10 kmSW (230°)9.3 km/hMostly Cloudy
10:00 AM27 °C20 °C65 %1016.3 hPa10 kmSW (220°)13 km/hMostly Cloudy
10:30 AM28 °C20 °C62 %1016.3 hPa10 kmSSW (210°)13 km/hMostly Cloudy
11:00 AM27.8 °C20 °C53 %1016.3 hPa25.7 kmSW (220°)18 km/hMostly Cloudy
11:00 AM28 °C20 °C62 %1016.3 hPa10 kmSW (220°)9.3 km/hMostly Cloudy
11:30 AM28 °C21 °C66 %1015.2 hPa10 kmWSW (240°)9.3 km/hMostly Cloudy
12:00 PM29 °C21 °C62 %1015.2 hPa10 kmWSW (250°)7.4 km/hMostly Cloudy
12:30 PM28 °C20 °C62 %1015.2 hPa10 kmVariable5.6 km/hMostly Cloudy
1:00 PM28 °C21 °C66 %1014.2 hPa10 kmNNW (340°)5.6 km/hMostly Cloudy
1:30 PM28 °C20 °C62 %1014.2 hPa10 kmNNE (30°)7.4 km/hMostly Cloudy
2:00 PM27.8 °C19.4 °C50 %1014.6 hPa25.7 kmNorth (10°)10.8 km/hMostly Cloudy
2:00 PM28 °C19 °C58 %1014.2 hPa10 kmNorth (10°)5.6 km/hMostly Cloudy
2:30 PM28 °C21 °C66 %1014.2 hPa10 kmVariable5.6 km/hMostly Cloudy
3:00 PM28 °C21 °C66 %1014.2 hPa10 kmWSW (240°)5.6 km/hMostly Cloudy
3:30 PM28 °C21 °C66 %1014.2 hPa10 kmVariable3.7 km/hMostly Cloudy
4:00 PM28 °C21 °C66 %1014.2 hPa10 kmWest (260°)5.6 km/hMostly Cloudy
4:30 PM27 °C21 °C70 %1014.2 hPa10 kmWSW (240°)9.3 km/hMostly Cloudy
5:00 PM26.7 °C21.1 °C65 %1014.9 hPa25.7 kmWSW (240°)7.4 km/hMostly Cloudy
5:00 PM27 °C21 °C70 %1014.2 hPa10 kmWSW (240°)7.4 km/hMostly Cloudy
5:30 PM27 °C21 °C70 %1015.2 hPa10 kmWSW (250°)7.4 km/hMostly Cloudy
6:00 PM26 °C21 °C74 %1015.2 hPa10 kmSW (230°)9.3 km/hMostly Cloudy
6:30 PM26 °C21 °C74 %1015.2 hPa10 kmSSW (210°)9.3 km/hMostly Cloudy
7:00 PM26 °C21 °C74 %1016.3 hPa10 kmSW (230°)7.4 km/hMostly Cloudy
7:30 PM26 °C21 °C74 %1016.3 hPa10 kmWSW (240°)3.7 km/hMostly Cloudy
8:00 PM26 °C21 °C74 %1016.3 hPa10 kmCalmMostly Cloudy
8:30 PM25 °C21 °C78 %1016.3 hPa10 kmEast (100°)3.7 km/hMostly Cloudy
9:00 PM25 °C21 °C78 %1016.3 hPa10 kmEast (90°)3.7 km/hMostly Cloudy
9:30 PM25 °C21 °C78 %1017.3 hPa10 kmEast (90°)3.7 km/hMostly Cloudy
10:00 PM25 °C21 °C78 %1017.3 hPa10 kmEast (90°)5.6 km/hMostly Cloudy
10:30 PM25 °C21 °C78 %1016.3 hPa10 kmEast (80°)5.6 km/hMostly Cloudy
11:00 PM24.4 °C20.6 °C73 %1016.6 hPa19.3 kmEast (100°)5.6 km/hScattered Clouds
11:00 PM24 °C21 °C83 %1016.3 hPa10 kmEast (100°)5.6 km/hPartly Cloudy
11:30 PM24 °C20 °C78 %1016.3 hPa10 kmESE (110°)3.7 km/hPartly Cloudy
Hourly data recorded from NTAA, located 0 kilometers away from Papeete, French Polynesia







STORIES FROM OUR PARTNERS